UMMENDORF Weather Reports


time (UTC)temp
F
wind
direction
speed
knots
gust
knots
rain 1hr
in
rain 24hr
in
rain mn
in
humidity
%
barometer
mb
20260507150210 58 349 5.2 0.0 0.00 0.00 0.06 49 1015.4
20260507143212 58 291 7.0 0.0 0.00 0.00 0.06 51 1015.5
20260507140210 58 355 8.7 0.0 0.00 0.00 0.06 50 1015.4
20260507133210 56 279 9.6 0.0 0.00 0.00 0.06 52 1015.5
20260507130210 55 355 7.8 0.0 0.00 0.00 0.06 54 1015.5
20260507123210 54 304 7.8 0.0 0.00 0.00 0.06 55 1015.4
20260507120211 52 283 2.6 0.0 0.00 0.00 0.06 62 1015.4
20260507113210 51 202 0.0 0.0 0.00 0.00 0.06 63 1015.5
20260507110210 51 20 0.0 0.0 0.00 0.00 0.05 61 1015.5
20260507103216 51 341 0.9 0.0 0.00 0.00 0.03 58 1015.5
20260507100212 53 280 7.0 0.0 0.00 0.00 0.03 56 1015.4
20260507093211 52 252 7.8 0.0 0.00 0.00 0.03 59 1015.2
20260507090211 51 211 9.6 0.0 0.00 0.00 0.03 63 1015.0
20260507083212 50 219 12.2 0.0 0.00 0.00 0.03 66 1014.8
20260507080211 49 220 10.4 0.0 0.00 0.00 0.03 66 1014.8
20260507073212 49 236 9.6 0.0 0.00 0.00 0.02 66 1014.4
20260507070212 48 219 8.7 0.0 0.00 0.00 0.02 66 1014.2
20260507063211 48 240 10.4 0.0 0.00 0.00 0.02 65 1014.1
20260507060211 48 221 10.4 0.0 0.00 0.00 0.00 64 1013.8
20260507053211 48 211 9.6 0.0 0.00 0.00 0.00 64 1013.5
20260507050213 47 223 9.6 0.0 0.00 0.00 0.00 63 1013.2
20260507043211 47 229 10.4 0.0 0.00 0.00 0.00 62 1012.8
20260507040216 47 225 7.8 0.0 0.00 0.00 0.00 61 1012.5
20260507033211 47 209 12.2 0.0 0.00 0.00 0.00 61 1012.4
20260507030211 47 244 7.8 0.0 0.00 0.00 0.00 61 1012.2
20260507023211 47 235 13.9 0.0 0.00 0.00 0.00 62 1012.0
20260507020211 47 234 12.2 0.0 0.00 0.00 0.00 62 1011.9
20260507013212 47 265 8.7 0.0 0.00 0.00 0.00 63 1011.8
20260507010211 47 207 7.0 0.0 0.00 0.00 0.00 62 1011.8
20260507003209 47 204 7.8 0.0 0.00 0.00 0.00 62 1011.7
20260507000209 47 232 9.6 0.0 0.00 0.00 0.00 63 1011.7
20260506233209 47 247 9.6 0.0 0.00 0.00 0.00 64 1011.5
20260506230209 47 248 7.0 0.0 0.00 0.00 0.00 63 1011.4
20260506223209 47 220 3.5 0.0 0.00 0.00 0.00 63 1011.4
20260506213209 48 233 11.3 0.0 0.00 0.00 0.08 64 1011.0
20260506210210 48 240 5.2 0.0 0.00 0.00 0.08 62 1010.7
20260506203210 49 224 10.4 0.0 0.00 0.00 0.08 63 1010.8
20260506200210 49 195 8.7 0.0 0.00 0.00 0.08 63 1010.5
20260506193215 49 231 8.7 0.0 0.00 0.00 0.08 63 1010.2
20260506190211 49 223 12.2 0.0 0.00 0.00 0.08 61 1009.7
20260506183209 50 211 10.4 0.0 0.00 0.00 0.08 62 1009.2
20260506180216 50 213 11.3 0.0 0.00 0.00 0.08 62 1009.2
20260506173210 50 246 13.0 0.0 0.00 0.00 0.08 61 1008.9
20260506170215 51 256 12.2 0.0 0.00 0.00 0.08 60 1008.5
20260506163210 51 224 9.6 0.0 0.00 0.00 0.08 62 1008.4
20260506160210 51 260 10.4 0.0 0.00 0.00 0.08 63 1008.2
20260506153210 51 256 25.2 0.0 0.00 0.00 0.07 62 1007.8